Regional Weather Roundup
Issued by NWS

Home | Current Version | Previous Version | Graphics & Text | Print | Product List | Glossary On
Versions: 1 2 3 4 5 6 7 8 9 10 11 12 13 14 15 16 17 18 19 20 21 22 23 24 25 26 27 28 29 30 31 32 33 34 35 36 37 38 39 40 41 42 43 44 45 46 47 48 49 50
000
ASUS43 KOAX 261910
RWRNE

WEATHER ROUNDUP FOR NEBRASKA
NATIONAL WEATHER SERVICE OMAHA NE
200 PM CDT WED JUL 26 2017

NOTES: SATELLITE DATA IS BEING USED TO AUGMENT CLOUD COVER ABOVE
       12000 FEET.
       "FAIR" INDICATES FEW OR NO CLOUDS BELOW 12,000 FEET WITH NO
       SIGNIFICANT WEATHER AND/OR OBSTRUCTIONS TO VISIBILITY.


NEZ001>004-019>022-054>056-262000-
NEBRASKA PANHANDLE

CITY           SKY/WX    TMP DP  RH WIND       PRES   REMARKS
SCOTTSBLUFF    CLOUDY    81  58  45 NE14      30.20R
ALLIANCE       CLOUDY    76  61  59 NE14      30.18S
CHADRON        CLOUDY    82  54  37 NE9       30.16S
GORDON         FAIR      80  60  51 NE15      30.17S
KIMBALL        CLOUDY    76  60  56 N12       30.24S
SIDNEY         CLOUDY    79  59  50 N17       30.20R
$$

NEZ057>060-069>072-079>082-262000-
SOUTHWEST NEBRASKA

CITY           SKY/WX    TMP DP  RH WIND       PRES   REMARKS
NORTH PLATTE   CLOUDY    80  67  64 E12       30.08S
IMPERIAL       CLOUDY    79  64  60 N14       30.11R
LEXINGTON      CLOUDY    72  69  90 NE16      30.05S
MCCOOK         CLOUDY    78  69  73 N15       30.04R
OGALLALA       PTSUNNY   84  63  49 NE13      30.11S
$$

NEZ005>010-023>029-035>040-094-262000-
NORTH CENTRAL NEBRASKA

CITY           SKY/WX    TMP DP  RH WIND       PRES   REMARKS
VALENTINE      PTSUNNY   84  62  47 NE18G26   30.10S
AINSWORTH      CLOUDY    79  69  72 NE13      30.10R
BROKEN BOW     CLOUDY    76  67  73 NE16      30.07R
O`NEILL        CLOUDY    78  71  80 NE6       30.06S
ORD            CLOUDY    76  68  76 N9        30.04S
THEDFORD       CLOUDY    79  68  69 N8        30.10F
$$

NEZ041-046>049-061>064-073>077-083>087-262000-
SOUTH CENTRAL NEBRASKA

CITY           SKY/WX    TMP DP  RH WIND       PRES   REMARKS
GRAND ISLAND   CLOUDY    75  73  93 NE14      30.02R
AURORA         CLOUDY    76  74  96 N16       30.01R
HASTINGS       CLOUDY    80  72  76 N7        30.01R
HEBRON         CLOUDY    82  71  69 CALM      29.97F
HOLDREGE       CLOUDY    78  72  82 NE7       30.01S
KEARNEY        CLOUDY    75  72  90 N15       30.02S
YORK           HVY RAIN  75  75 100 NE10      29.99F
$$

NEZ011>018-030>034-042>045-262000-
NORTHEAST NEBRASKA

CITY           SKY/WX    TMP DP  RH WIND       PRES   REMARKS
NORFOLK        CLOUDY    77  70  79 NE9       30.01F
ALBION         CLOUDY    78  72  81 NE12      30.02F
BLAIR          TSTM      74  73  96 CALM      30.00S
COLUMBUS       LGT RAIN  73  72  96 CALM      30.01S
FREMONT        CLOUDY    73  72  98 E5        30.00S
TEKAMAH        RAIN      75  73  93 N7        29.99R FOG
WAYNE          CLOUDY    79  76  91 NE9       30.01F
$$

NEZ050>053-065>068-078-088>093-262000-
SOUTHEAST NEBRASKA

CITY           SKY/WX    TMP DP  RH WIND       PRES   REMARKS
LINCOLN        CLOUDY    81  74  79 S3        29.98R
OMAHA EPPLEY   TSTM      75  71  87 N5        29.99S
BEATRICE       CLOUDY    82  73  74 S8        29.97S
FALLS CITY     CLOUDY    78  74  87 S9        29.96F
NEBRASKA CITY  CLOUDY    80  78  95 S10       29.97F
PLATTSMOUTH    CLOUDY    77  73  87 SE3       29.98F
$$

NEZ044-045-051>053-067-262000-
OMAHA AREA

CITY           SKY/WX    TMP DP  RH WIND       PRES   REMARKS
OMAHA EPPLEY   TSTM      75  71  87 N5        29.99S
BLAIR          TSTM      74  73  96 CALM      30.00S
FREMONT        CLOUDY    73  72  98 E5        30.00S
MILLARD        HVY RAIN  76  74  93 CALM      29.99R
OFFUTT AFB     RAIN      77  72  83 E5        29.97F
PLATTSMOUTH    CLOUDY    77  73  87 SE3       29.98F
WAHOO          LGT RAIN  73  72  98 NE7       29.99S
$$



USA.gov is the U.S. government's official web portal to all federal, state and local government web resources and services.